HORIZONS 2

导读 | 星芒AI

HORIZONS 2 是一颗由日本通信卫星公司(JSAT)运营的高容量通信卫星,于2014年发射,搭载在波音702HP平台上。该卫星主要覆盖日本、东南亚及太平洋地区,提供广播、宽带和企业通信服务。HORIZONS 2 配备了多个转发器,支持C波段和Ku波段传输,增强了区域通信能力。其先进设计提高了信号传输效率和可靠性,为区域内的数字内容分发和网络连接提供了重要支持。

基本信息
目录编号:
32388
目录名称:
HORIZONS 2
国际标识:
2007-063B
轨道中心:
EARTH
卫星名称:
HORIZONS 2
卫星全名:
--
卫星状态:
在轨 (已飞行6567 天)
发射日期:
2007-12-21 UTC
国别 :
(ITSO)
星等 :
--
轨道信息
数据来源 国际轨道数据 AOE轨道数据
星历时间 2025-12-13T07:24:08+0800
10小时前
查看轨道信息
2025-12-13T11:00:00+0800
7小时前
查看轨道信息
半长轴 42165.317km 42165.261km
偏心率 0.0004888 0.0004849
轨道倾角 2.122° 2.123°
近地点辐角 190.307° 189.359°
升交点赤经 82.959° 82.967°
平近点角 85.878° 140.935°
近地点 35766.571km 35766.68km
远地点 35807.793km 35807.572km
周期 1436.127分钟 1436.124分钟
每日圈数 1.002697 1.002699
详细信息
使用方式:
暂无
2D轨道图
3D轨道图
轨道高度分析图
轨道倾角分析图
轨道综合分析图
查看轨道综合分析图